Regional Weather Roundup
Issued by NWS Wakefield, VA

Home | Current Version | Previous Version | Graphics & Text | Print | Product List | Glossary On
Versions: 1 2 3 4 5 6 7 8 9 10 11 12 13 14 15 16 17 18 19 20 21 22 23 24 25 26 27
000
ASUS41 KAKQ 280915
RWRAKQ

REGIONAL WEATHER ROUNDUP
NATIONAL WEATHER SERVICE WAKEFIELD VA
500 AM EDT WED JUN 28 2017

Note: "fair" indicates few or no clouds below 12,000 feet with no
significant weather and/or obstructions to visibility. * = Denotes
station may not report precipitation (e.g., rain,snow,etc.),
thunder or fog.

VAZ042-051-052>054-056-281000-
NORTHERN VIRGINIA

CITY           SKY/WX    TMP DP  RH WIND       PRES   REMARKS
WASH NATIONAL  PTCLDY    63  50  62 NW5       30.14R
DULLES         CLEAR     51  47  86 CALM      30.14R
FORT BELVOIR   PTCLDY    52  49  90 CALM      30.14R
QUANTICO       CLEAR     58  54  86 NW6       30.15R
FREDERICKSBRG* CLEAR     55  52  90 CALM      30.14R
STAFFORD*      CLEAR     49  49 100 CALM      30.18S
WARRENTON      CLEAR     48  44  86 CALM      30.13S
CULPEPER*      CLEAR     50  50  99 CALM      30.15S
MANASSAS*      CLEAR     50  49  96 S3        30.14S
LEESBURG*      CLEAR     54  52  94 W3        30.15S
WINCHESTER     CLEAR     46  45  93 CALM      30.15R
FRONT ROYAL*   SUNNY     54  48  82 S8        30.15R
LURAY*         SUNNY     50  50 100 CALM      30.16S
$$

VAZ048-049-060>072-079>083-281000-
CENTRAL AND SOUTH CENTRAL VIRGINIA

CITY           SKY/WX    TMP DP  RH WIND       PRES   REMARKS
RICHMOND       CLEAR     60  52  74 N5        30.14R
CHESTERFIELD*  FAIR      55  52  89 CALM      30.15R
PETERSBURG*    CLEAR     52  49  90 CALM      30.15S
HANOVER        CLEAR     54  49  83 CALM      30.16R
TAPPAHANNOCK*  CLEAR     54  54 100 CALM      30.14S
QUINTON*       FAIR      55  55 100 CALM      30.14R
CHARLOTTSVILLE CLEAR     57  51  80 CALM      30.15R
GORDONSVILLE*  SUNNY     50  50  99 CALM      30.15R
ORANGE*        CLEAR     50  48  93 CALM      30.15R
LOUISA*        CLEAR     50  48  93 CALM      30.14S
BUMPASS*       FAIR      54  51  92 CALM      30.15R
FARMVILLE*     CLEAR     52  50  92 CALM      30.15R
CREWE*         FAIR      53  49  87 CALM      30.15S
FORT PICKETT*  FAIR      56  52  86 N3        30.15S
CHASE CITY*    FAIR      56  56  99 CALM      30.16R
CLARKSVILLE*   FAIR      61  52  72 CALM      30.16R
SOUTH HILL*    CLEAR     58  53  83 CALM      30.20S
LAWRENCEVILLE* FAIR      60  52  75 CALM      30.14S
EMPORIA*       CLEAR     55  52  88 N3        30.15S
$$

VAZ088>098-281000-
SOUTHEAST VIRGINIA

CITY           SKY/WX    TMP DP  RH WIND       PRES   REMARKS
NORFOLK        CLEAR     73  58  59 NE15      30.10R
VIRGINIA BEACH CLEAR     67  61  81 N8        30.10R
NORFOLK NAVAL  PTCLDY    73  57  57 N12       30.12R
WEST POINT*    CLEAR     55  53  95 CALM      30.15R
SALUDA*        FAIR      67  53  61 N9        30.13R
NEWPORT NEWS   CLEAR     64  52  64 N6        30.12R
LANGLEY AFB    CLEAR     67  55  64 N7        30.11R
FORT EUSTIS    CLEAR     67  52  58 N5        30.10R
WILLIAMSBURG*  CLEAR     63  55  77 CALM      30.14R
HR EXEC AP*    FAIR      55  54  94 N3        30.10R
FRANKLIN*      CLEAR     57  55  94 CALM      30.14R
US460-WAKEFLD  CLEAR     56  55  97 CALM      30.14R
$$

VAZ020-022-025-037-045-281000-
WEST CENTRAL AND SOUTHWEST VIRGINIA

CITY           SKY/WX    TMP DP  RH WIND       PRES   REMARKS
STAUNTON*      CLEAR     46  44  94 CALM      30.20R
WAYNESBORO*    SUNNY     48  48  99 CALM      30.18R
HOT SPRINGS VA CLEAR     52  39  62 CALM      30.23S
LYNCHBURG      CLEAR     50  47  89 NW3       30.17R
DANVILLE       CLEAR     53  53 100 CALM      30.17R
SOUTH BOSTON*  FAIR      54  53  95 CALM      30.16S
MARTINSVILLE   CLEAR     49  48  97 CALM      30.20S FOG
ROANOKE        CLEAR     53  48  83 CALM      30.20S
BLACKSBURG     CLEAR     49  47  93 CALM      30.24R
DUBLIN*        CLEAR     50  44  80 CALM      30.23R
MARION*        CLEAR     47  44  88 CALM      30.25R
HILLSVILLE*    CLEAR     50  46  84 CALM      30.22R
RICHLANDS*     FAIR      51  23  33 CALM      30.22R
WISE*          CLEAR     54  43  66 CALM      30.22S
ABINGDON*      CLEAR     55  50  82 E5        30.20S
$$

MDZ021>025-VAZ099-100-281000-
SOUTHERN MARYLAND AND THE DELMARVA PENINSULA

CITY           SKY/WX    TMP DP  RH WIND       PRES   REMARKS
PATUXENT RIVER CLEAR     66  52  60 N7        30.13R
BAY BRIDGE APT CLEAR     66  52  59 N6        30.12S
LEONARDTOWN    CLEAR     54  50  87 CALM      30.15R
DOVER          CLEAR     61  53  76 W5        30.11R
GEORGETOWN     CLEAR     59  52  77 CALM      30.13R
EASTON         CLEAR     59  51  74 CALM      30.16S
CAMBRIDGE      CLEAR     59  54  82 CALM      30.13R
SALISBURY      PTCLDY    60  52  74 NW3       30.12R
OCEAN CITY     CLEAR     59  52  77 N7        30.12R
WALLOPS ISLAND CLEAR     62  53  72 N6        30.12R
ACCOMACK*      CLEAR     65  54  68 N6        30.12R
$$

NCZ012>017-030>032-281000-
NORTH CENTRAL AND EASTERN NORTH CAROLINA

CITY           SKY/WX    TMP DP  RH WIND       PRES   REMARKS
ROANOKE RAPIDS FAIR      57  54  88 N5        30.13S
RALEIGH        PTCLDY    60  56  86 N3        30.16R
ELIZABETH CITY CLEAR     62  60  93 W5        30.10R
AHOSKIE*         N/A     57  55  92 CALM      30.13R
EDENTON*       CLEAR     62  58  87 CALM      30.12R
CURRITUCK*     CLEAR     62  62 100 CALM      30.10S
KILL DEVIL HLS CLEAR     70  57  64 CALM      30.08S
MANTEO         CLEAR     68  59  74 N3        30.10R
CAPE HATTERAS  NOT AVBL
TARBORO*       NOT AVBL
GOLDSBORO      CLEAR     62  61  97 CALM      30.11R
WASHINGTON       N/A    N/A N/A N/A CALM      30.11S
GREENVILLE     CLEAR     59  59 100 CALM      30.13R
NEW BERN       CLEAR     62  61  96 CALM      30.12R
WILMINGTON     CLEAR     67  59  75 NE5       30.10R
$$

VAZ048-281000-
ELSEWHERE

CITY           SKY/WX    TMP DP  RH WIND       PRES   REMARKS
HARRISBURG PA  CLEAR     56  50  80 CALM      30.11S
BALTIMORE      PTCLDY    55  50  83 CALM      30.13R
ANNAPOLIS      CLEAR     60  56  86 W3        30.12R
ANDREWS AFB    CLEAR     54  49  82 CALM      30.13R
PHILADELPHIA   CLEAR     63  49  60 NW8       30.11R
HENDERSON NC   CLEAR     55  51  87 CALM      30.16R
GREENSBORO     CLEAR     60  53  77 NE3       30.16R
ROCKY MOUNT    CLEAR     63  57  81 N8        30.13R
$$

VAZ100-281000-
MARINE

STATION/POSITION TIME  TEMP    WIND        PRES    WAVE   SWELL
                       AIR SEA DIR/SP/G            HT/PER HT/PER
                 (UTC) (F)     (DEG/KT/KT) (MB)    (FT/S) (FT/S)
BRANDYWINE LGT   0842   68     360/ 21/ 23 1019.6R
CAPE MAY NJ      0842   68 69  330/  2/  7 1019.1R
LEWES DE         0842   68 70  330/ 11/ 14 1019.5R
15NM E FENWICK I 0850   67 67  330/ 14/ 16 1019.6R   2/ 3   2/ 8
OCEAN-CITY-INLET 0842   66 66  360/ 11/ 15 1019.8R
WACHAPREAGUE VA  0842   65 76   20/  5/  7 1019.5R
THOMAS POINT MD  0900   66 76  340/  5/  6   N/A
GOOSES REEF MD   0900   71 77   40/ 12/ 14 1020.8    1/ 2
COVE POINT MD    0842   70     360/ 11/ 18 1020.5R
SOLOMONS ISLAND  0842   67 78  320/  2/  4   N/A
BISHOPS HEAD MD  0842   67 76  340/  6/  9 1020.0R
PINEY POINT MD   0836           20/  7/  8   N/A
POTOMAC MD       0900   69 78  350/  8/ 12 1019.3    1/ 2
CAMBRIDGE MD     0842   68 80              1020.5R
LEWISETTA VA     0842   69 78   10/  7/ 11 1020.0R
RAPPAHANNOCK LGT 0836          360/ 16/ 19 1020.1R
STINGRAY PT      0850   73      30/ 12/ 17 1019.4R
YORK RVR RNG VA  0842   72      10/ 16/ 19 1019.8R
YORKTOWN VA      0836   69 78  350/ 10/ 12 1019.6R
JAMESTOWN VA     0900   65 82  350/  2/  4   N/A     0
DOMINION TERM VA 0836   70      90/  1/  5 1019.5R
KIPTOPEKE VA     0836      73   40/  6/  8   N/A
CHES BAY BRIDGE  0836   72 74   50/ 19/ 22 1018.9R
CAPE HENRY VA    0836   72      10/ 16/ 20   N/A
WILLOUBY STN VA  0836   72     360/ 14/ 16 1019.1R
S CRANEY ISL VA  0836   74      20/ 13/ 17 1019.0R
CAPE HENRY BUOY  0900      72                N/A     1/ 8
1ST LANDING BUOY 0900   72 73              1019.9    2/ 3
CAPE CHARLES BUO 0851      69                N/A     1/ 8
64NM E OF VA BCH 0850   74 74  360/  2/  4 1019.3R   1/ 8   2/ 8
DUCK PIER NC     0836   73 72  330/  9/ 10 1018.5R
44100 DUCK FRF   0805      73                N/A     1/ 6
OREGON INLET NC  0836   70 76  350/  4/  5 1018.7R
HATTERAS NC      0836   77 79   10/ 12/ 14 1018.5R
DIAMOND SHLS NC  0850   76 80  360/ 12/ 14 1018.4R   2/ 3   2/ 6
CAPE LOOKOUT NC  0800   75      10/  8/ 11 1018.4R
$$




USA.gov is the U.S. government's official web portal to all federal, state and local government web resources and services.